Amritsar, India

1:15 AM IST on February 15, 2016 (GMT +0530)
Amritsar

Weather History for VIAR - January, 2013

Change the Weather History Date:

Thursday, January 24, 2013

  Actual Average Record
Temperature  
Mean Temperature 50 °F -  
Max Temperature 64 °F 61 °F 66 °F (2014)
Min Temperature 37 °F 39 °F 34 °F (2016)
Degree Days  
Heating Degree Days 14    
Moisture  
Dew Point 50 °F    
Average Humidity 95    
Maximum Humidity 100    
Minimum Humidity 59    
Precipitation  
Precipitation 0.00 in - - ()
Sea Level Pressure  
Sea Level Pressure 30.13 in    
Wind  
Wind Speed 1 mph ()    
Max Wind Speed 8 mph    
Max Gust Speed -    
Visibility 1.2 miles    
Events Fog    
Averages and records for this station are not official NWS values.
T = Trace of Precipitation, MM = Missing Value Source: Averaged Metar Reports

Daily Weather History Graph

Daily Weather History Graph

Search for Another Location

Airport or City:

Trip Planner

Search our weather history database for the weather conditions in past years. The results will help you decide how hot, cold, wet, or windy it might be!

Date:

Astronomy

Jan. 24, 2013 Rise Set
Actual Time 7:27 AM IST 5:57 PM IST
Civil Twilight 7:01 AM IST 6:23 PM IST
Nautical Twilight 6:32 AM IST 6:53 PM IST
Astronomical Twilight 6:03 AM IST 7:22 PM IST
Moon 3:38 PM IST (1/24) 5:02 AM IST (1/24)
Length of Visible Light 11h 21m
Length of Day
10h 29m
Waxing Gibbous, 92% of the Moon is Illuminated
Jan 24
Waxing Gibbous
Jan 27
Full
Feb 3
Last Quarter
Feb 10
New
Feb 18
First Quarter

Hourly Weather History & Observations

Time (IST) Temp. Windchill Dew Point Humidity Pressure Visibility Wind Dir Wind Speed Gust Speed Precip Events Conditions
12:00 AM 44.6 °F - 44.6 °F 100% 30.15 in 1.1 mi Calm Calm - N/A   Scattered Clouds
12:30 AM 44.6 °F - 44.6 °F 100% 30.15 in 1.1 mi Calm Calm - N/A   Scattered Clouds
1:00 AM 44.6 °F - 44.6 °F 100% 30.15 in 1.1 mi Calm Calm - N/A   Scattered Clouds
1:30 AM 44.6 °F 43.1 °F 44.6 °F 100% 30.12 in 1.1 mi Variable 3.5 mph - N/A   Scattered Clouds
2:00 AM 42.8 °F - 42.8 °F 100% 30.15 in 1.1 mi Calm Calm - N/A   Scattered Clouds
2:30 AM 42.8 °F - 42.8 °F 100% 30.12 in 1.1 mi Calm Calm - N/A   Scattered Clouds
3:00 AM 42.8 °F - 42.8 °F 100% 30.12 in 1.1 mi Calm Calm - N/A   Scattered Clouds
3:30 AM 42.8 °F - 42.8 °F 100% 30.12 in 1.1 mi Calm Calm - N/A   Scattered Clouds
4:00 AM 42.8 °F - 42.8 °F 100% 30.12 in 1.1 mi Calm Calm - N/A   Scattered Clouds
5:00 AM 41.0 °F - 41.0 °F 100% 30.12 in 1.1 mi Calm Calm - N/A   Scattered Clouds
5:30 AM 39 °F - 39 °F 99% 30.16 in 0 mi Calm Calm - - Fog Partial Fog
5:30 AM 39.2 °F - 39.2 °F 100% 30.12 in 0.5 mi Calm Calm - N/A   Scattered Clouds
6:00 AM 39.2 °F - 39.2 °F 100% 30.12 in 0.4 mi Calm Calm - N/A   Scattered Clouds
6:30 AM 39.2 °F - 39.2 °F 100% 30.12 in 0.6 mi Calm Calm - N/A   Scattered Clouds
7:00 AM 39.2 °F - 39.2 °F 100% 30.12 in 0.6 mi Calm Calm - N/A   Scattered Clouds
7:30 AM 39.2 °F - 39.2 °F 100% 30.15 in 0.2 mi Calm Calm - N/A   Clear
8:30 AM 42 °F - 42 °F 99% 30.20 in 0 mi Calm Calm - - Fog Partial Fog
8:30 AM 41.0 °F - 41.0 °F 100% 30.15 in 0.2 mi Calm Calm - N/A Fog Fog
9:00 AM 46.4 °F - 46.4 °F 100% 30.18 in 0.4 mi Calm Calm - N/A Fog Fog
9:30 AM 50.0 °F - 50.0 °F 100% 30.18 in 0.6 mi Calm Calm - N/A   Mist
10:00 AM 51.8 °F - 51.8 °F 100% 30.18 in 0.6 mi Calm Calm - N/A   Mist
10:30 AM 53.6 °F - 53.6 °F 100% 30.21 in 0.6 mi Calm Calm - N/A   Mist
11:00 AM 57.2 °F - 57.2 °F 100% 30.21 in 0.6 mi Calm Calm - N/A   Mist
11:30 AM 61 °F - 60 °F 97% 30.20 in 1 mi Calm Calm - -   Mist
11:30 AM 60.8 °F - 60.8 °F 100% 30.18 in 0.7 mi Calm Calm - N/A   Mist
12:00 PM 60.8 °F - 60.8 °F 100% 30.18 in 0.7 mi Variable 2.3 mph - N/A   Mist
12:30 PM 62.6 °F - 62.6 °F 100% 30.18 in 1.1 mi Variable 3.5 mph - N/A   Mist
1:00 PM 62.6 °F - 62.6 °F 100% 30.15 in 1.1 mi NW 4.6 mph - N/A   Mist
1:30 PM 64.4 °F - 57.2 °F 77% 30.15 in 1.2 mi West 6.9 mph - N/A   Mist
2:00 PM 64.4 °F - 53.6 °F 68% 30.12 in 1.2 mi West 5.8 mph - N/A   Mist
2:30 PM 64 °F - 54 °F 63% 30.12 in 1 mi NW 8.1 mph - -   Haze
2:30 PM 64.4 °F - 53.6 °F 68% 30.12 in 1.2 mi NW 8.1 mph - N/A   Haze
3:00 PM 64.4 °F - 53.6 °F 68% 30.12 in 1.9 mi NW 8.1 mph - N/A   Haze
3:30 PM 64.4 °F - 64.4 °F 100% 30.09 in 2.5 mi NW 8.1 mph - N/A   Haze
4:00 PM 64.4 °F - 57.2 °F 77% 30.09 in 2.5 mi NW 5.8 mph - N/A   Haze
4:30 PM 64.4 °F - 57.2 °F 77% 30.09 in 2.5 mi NW 6.9 mph - N/A   Haze
5:00 PM 64.4 °F - 50.0 °F 59% 30.09 in 2.5 mi NW 3.5 mph - N/A   Haze
5:30 PM 62.6 °F - 57.2 °F 82% 30.09 in 2.5 mi Calm Calm - N/A   Mist
6:00 PM 59.0 °F - 57.2 °F 94% 30.09 in 2.5 mi Calm Calm - N/A   Mist
6:30 PM 57.2 °F - 57.2 °F 100% 30.09 in 2.5 mi Calm Calm - N/A   Mist
7:00 PM 55.4 °F - 55.4 °F 100% 30.09 in 2.5 mi Calm Calm - N/A   Mist
7:30 PM 53.6 °F - 53.6 °F 100% 30.09 in 2.5 mi Calm Calm - N/A   Mist
8:00 PM 51.8 °F - 51.8 °F 100% 30.09 in 1.9 mi Calm Calm - N/A   Mist
8:30 PM 50 °F - 50 °F 100% 30.14 in 1 mi Calm Calm - -   Mist
8:30 PM 50.0 °F - 50.0 °F 100% 30.12 in 1.6 mi Calm Calm - N/A   Mist
9:00 PM 50.0 °F - 50.0 °F 100% 30.12 in 1.6 mi Calm Calm - N/A   Mist
9:30 PM 48.2 °F - 48.2 °F 100% 30.12 in 1.2 mi Calm Calm - N/A   Mist
10:00 PM 46.4 °F - 46.4 °F 100% 30.12 in 1.2 mi Calm Calm - N/A   Mist
10:30 PM 46.4 °F - 46.4 °F 100% 30.12 in 1.2 mi Calm Calm - N/A   Mist
11:00 PM 46.4 °F - 46.4 °F 100% 30.12 in 1.2 mi Calm Calm - N/A   Mist
11:30 PM 46.4 °F - 46.4 °F 100% 30.12 in 1.2 mi Calm Calm - N/A   Mist